time,speed
2024051800,52.8
2024051801,49.2
2024051802,50.4
2024051803,38.8
2024051804,44.0
2024051805,49.4
2024051806,55.4
2024051807,49.0
2024051808,51.3
2024051809,49.4
2024051810,43.0
2024051811,36.5
2024051812,46.9
2024051813,25.2
2024051814,50.1
2024051815,49.6
2024051816,49.3
2024051817,41.9
2024051818,36.0
2024051819,40.2
2024051820,43.3
2024051821,43.1
2024051822,42.2
2024051823,44.6
2024051700,44.5
2024051701,50.5
2024051702,54.3
2024051703,42.2
2024051704,37.2
2024051705,45.4
2024051706,39.0
2024051707,50.6
2024051708,37.1
2024051709,28.4
2024051710,40.9
2024051711,30.9
2024051712,27.2
2024051713,25.4
2024051714,41.6
2024051715,41.4
2024051716,29.5
2024051717,34.6
2024051718,30.1
2024051719,28.5
2024051720,31.9
2024051721,30.2
2024051722,43.1
2024051723,49.0
2024051600,42.6
2024051601,47.6
2024051602,40.7
2024051603,38.1
2024051604,46.2
2024051605,48.3
2024051606,35.1
2024051607,36.9
2024051608,35.0
2024051609,43.6
2024051610,35.7
2024051611,30.2
2024051612,30.5
2024051613,26.9
2024051614,31.6
2024051615,27.1
2024051616,36.8
2024051617,15.5
2024051618,23.2
2024051619,36.4
2024051620,41.1
2024051621,36.4
2024051622,33.9
2024051623,45.5
2024051500,50.0
2024051501,48.0
2024051502,50.9
2024051503,51.0
2024051504,55.8
2024051505,50.4
2024051506,49.7
2024051507,53.9
2024051508,35.7
2024051509,37.8
2024051510,28.4
2024051511,14.2
2024051512,21.7
2024051513,25.1
2024051514,17.1
2024051515,22.2
2024051516,13.5
2024051517,65.3
2024051518,35.1
2024051519,21.1
2024051520,34.5
2024051521,39.2
2024051522,42.9
2024051523,28.0
2024051400,49.3
2024051401,46.7
2024051402,58.6
2024051403,51.3
2024051404,57.0
2024051405,59.5
2024051406,50.9
2024051407,48.7
2024051408,47.8
2024051409,54.9
2024051410,40.7
2024051411,33.3
2024051412,29.3
2024051413,35.0
2024051414,30.1
2024051415,25.0
2024051416,35.4
2024051417,22.1
2024051418,31.1
2024051419,35.3
2024051420,47.9
2024051421,42.6
2024051422,56.3
2024051423,58.4
2024051300,54.4
2024051301,57.3
2024051302,53.6
2024051303,46.5
2024051304,57.0
2024051305,56.7
2024051306,54.6
2024051307,58.8
2024051308,42.6
2024051309,39.9
2024051310,38.8
2024051311,36.8
2024051312,20.7
2024051313,33.7
2024051314,31.7
2024051315,42.0
2024051316,30.6
2024051317,38.7
2024051318,30.3
2024051319,32.9
2024051320,44.0
2024051321,47.5
2024051322,56.3
2024051323,55.6
2024051200,48.3
2024051201,53.7
2024051202,54.8
2024051203,45.6
2024051204,52.5
2024051205,51.3
2024051206,51.3
2024051207,52.4
2024051208,48.5
2024051209,55.6
2024051210,46.6
2024051211,43.4
2024051212,42.1
2024051213,47.3
2024051214,51.7
2024051215,48.3
2024051216,44.0
2024051217,40.8
2024051218,41.7
2024051219,37.9
2024051220,45.6
2024051221,56.3
2024051222,59.0
2024051223,58.7
2024051100,51.6
2024051101,50.3
2024051102,56.5
2024051103,47.6
2024051104,56.5
2024051105,50.4
2024051106,50.9
2024051107,62.6
2024051108,45.5
2024051109,57.6
2024051110,53.4
2024051111,45.6
2024051112,41.1
2024051113,45.0
2024051114,35.3
2024051115,47.5
2024051116,46.6
2024051117,41.6
2024051118,40.8
2024051119,45.4
2024051120,41.1
2024051121,52.7
2024051122,54.7
2024051123,54.4
2024051000,52.3
2024051001,52.4
2024051002,46.9
2024051003,42.4
2024051004,49.6
2024051005,47.9
2024051006,49.2
2024051007,50.3
2024051008,38.5
2024051009,45.7
2024051010,37.7
2024051011,42.5
2024051012,32.6
2024051013,37.0
2024051014,28.7
2024051015,32.8
2024051016,42.4
2024051017,38.5
2024051018,37.6
2024051019,35.1
2024051020,46.1
2024051021,52.7
2024051022,47.0
2024051023,53.4
2024050900,43.7
2024050901,49.3
2024050902,36.1
2024050903,40.4
2024050904,42.2
2024050905,43.1
2024050906,32.4
2024050907,44.5
2024050908,30.2
2024050909,31.0
2024050910,35.5
2024050911,23.3
2024050912,25.9
2024050913,21.8
2024050914,29.6
2024050915,23.3
2024050916,32.4
2024050917,32.8
2024050918,32.1
2024050919,33.6
2024050920,33.0
2024050921,48.9
2024050922,58.4
2024050923,51.5
2024050800,42.6
2024050801,42.7
2024050802,42.0
2024050803,43.2
2024050804,45.8
2024050805,41.7
2024050806,43.9
2024050807,43.1
2024050808,31.5
2024050809,32.3
2024050810,36.5
2024050811,27.1
2024050812,23.7
2024050813,28.1
2024050814,26.6
2024050815,32.5
2024050816,35.5
2024050817,20.4
2024050818,31.0
2024050819,43.8
2024050820,44.1
2024050821,37.4
2024050822,51.6
2024050823,49.4
2024050700,44.5
2024050701,48.3
2024050702,44.2
2024050703,44.5
2024050704,43.7
2024050705,45.2
2024050706,40.5
2024050707,48.6
2024050708,36.5
2024050709,27.3
2024050710,27.5
2024050711,21.6
2024050712,20.7
2024050713,27.1
2024050714,24.2
2024050715,24.6
2024050716,25.4
2024050717,29.5
2024050718,24.4
2024050719,28.2
2024050720,38.5
2024050721,36.2
2024050722,41.5
2024050723,41.7
2024050600,39.9
2024050601,42.8
2024050602,48.3
2024050603,36.9
2024050604,45.1
2024050605,43.5
2024050606,46.7
2024050607,38.5
2024050608,38.9
2024050609,40.3
2024050610,26.7
2024050611,34.7
2024050612,31.0
2024050613,26.6
2024050614,36.3
2024050615,38.1
2024050616,42.2
2024050617,41.3
2024050618,32.9
2024050619,36.6
2024050620,46.8
2024050621,47.2
2024050622,49.9
2024050623,51.9
2024050500,43.7
2024050501,41.1
2024050502,47.9
2024050503,41.0
2024050504,41.7
2024050505,44.9
2024050506,46.0
2024050507,36.5
2024050508,34.7
2024050509,35.2
2024050510,44.4
2024050511,42.6
2024050512,30.7
2024050513,42.3
2024050514,32.4
2024050515,33.8
2024050516,37.4
2024050517,39.4
2024050518,27.5
2024050519,36.4
2024050520,37.0
2024050521,38.1
2024050522,40.5
2024050523,37.7
2024050400,48.4
2024050401,42.9
2024050402,46.8
2024050403,37.0
2024050404,46.0
2024050405,44.8
2024050406,36.8
2024050407,49.0
2024050408,46.6
2024050409,51.4
2024050410,46.4
2024050411,41.9
2024050412,39.6
2024050413,40.6
2024050414,37.8
2024050415,32.0
2024050416,31.8
2024050417,32.8
2024050418,36.8
2024050419,40.2
2024050420,46.5
2024050421,44.3
2024050422,37.5
2024050423,42.0
2024050300,49.5
2024050301,50.2
2024050302,49.4
2024050303,41.9
2024050304,44.3
2024050305,49.1
2024050306,40.7
2024050307,48.2
2024050308,42.0
2024050309,41.8
2024050310,35.3
2024050311,31.1
2024050312,31.0
2024050313,34.9
2024050314,33.1
2024050315,36.8
2024050316,39.6
2024050317,34.4
2024050318,33.5
2024050319,39.9
2024050320,44.2
2024050321,43.1
2024050322,45.2
2024050323,48.3
2024050200,45.7
2024050201,42.9
2024050202,46.2
2024050203,43.0
2024050204,51.7
2024050205,50.0
2024050206,49.0
2024050207,51.5
2024050208,45.2
2024050209,37.8
2024050210,30.8
2024050211,34.8
2024050212,26.9
2024050213,24.8
2024050214,39.9
2024050215,30.8
2024050216,32.9
2024050217,34.9
2024050218,35.0
2024050219,36.3
2024050220,38.2
2024050221,40.7
2024050222,51.2
2024050223,49.1
2024050100,49.5
2024050101,38.7
2024050102,40.9
2024050103,32.4
2024050104,35.9
2024050105,39.5
2024050106,39.0
2024050107,40.4
2024050108,27.7
2024050109,32.0
2024050110,19.3
2024050111,32.4
2024050112,28.8
2024050113,25.1
2024050114,24.1
2024050115,38.9
2024050116,34.2
2024050117,28.8
2024050118,26.9
2024050119,32.7
2024050120,32.2
2024050121,41.3
2024050122,44.6
2024050123,47.3
2024043000,22.3
2024043001,23.8
2024043002,22.9
2024043003,23.7
2024043004,24.1
2024043005,29.0
2024043006,27.8
2024043007,19.3
2024043008,18.4
2024043009,20.6
2024043010,16.0
2024043011,32.7
2024043012,26.6
2024043013,27.0
2024043014,32.9
2024043015,29.7
2024043016,31.1
2024043017,27.2
2024043018,32.5
2024043019,24.6
2024043020,35.9
2024043021,28.6
2024043022,32.6
2024043023,35.3
2024042900,22.6
2024042901,23.3
2024042902,24.5
2024042903,25.1
2024042904,25.1
2024042905,25.2
2024042906,23.3
2024042907,25.3
2024042908,25.7
2024042909,19.8
2024042910,17.1
2024042911,15.9
2024042912,17.6
2024042913,25.6
2024042914,15.9
2024042915,18.3
2024042916,18.0
2024042917,26.7
2024042918,18.5
2024042919,17.5
2024042920,22.5
2024042921,19.0
2024042922,17.0
2024042923,18.3
2024042800,21.9
2024042801,27.7
2024042802,32.4
2024042803,26.0
2024042804,24.5
2024042805,26.0
2024042806,25.7
2024042807,24.5
2024042808,25.2
2024042809,21.5
2024042810,19.8
2024042811,34.1
2024042812,35.0
2024042813,29.0
2024042814,36.8
2024042815,36.1
2024042816,17.9
2024042817,13.3
2024042818,13.7
2024042819,17.0
2024042820,15.5
2024042821,21.3
2024042822,19.3
2024042823,26.0
2024042700,37.9
2024042701,43.0
2024042702,38.7
2024042703,35.2
2024042704,40.1
2024042705,37.6
2024042706,47.7
2024042707,42.7
2024042708,40.5
2024042709,30.6
2024042710,42.7
2024042711,41.9
2024042712,40.3
2024042713,39.8
2024042714,21.7
2024042715,25.1
2024042716,28.4
2024042717,27.7
2024042718,29.4
2024042719,33.6
2024042720,33.0
2024042721,37.6
2024042722,20.5
2024042723,20.3
2024042600,50.4
2024042601,57.2
2024042602,56.5
2024042603,47.1
2024042604,35.4
2024042605,46.3
2024042606,50.7
2024042607,37.1
2024042608,41.5
2024042609,41.7
2024042610,33.3
2024042611,36.1
2024042612,26.5
2024042613,23.8
2024042614,36.2
2024042615,25.6
2024042616,35.5
2024042617,36.3
2024042618,34.1
2024042619,35.0
2024042620,43.5
2024042621,39.8
2024042622,42.2
2024042623,43.5
2024042500,54.1
2024042501,51.0
2024042502,54.6
2024042503,48.7
2024042504,54.3
2024042505,55.7
2024042506,45.6
2024042507,36.6
2024042508,43.7
2024042509,40.0
2024042510,45.6
2024042511,37.0
2024042512,32.0
2024042513,23.9
2024042514,37.5
2024042515,41.0
2024042516,37.1
2024042517,34.3
2024042518,42.9
2024042519,40.4
2024042520,52.1
2024042521,47.8
2024042522,48.9
2024042523,54.5
2024042400,53.0
2024042401,48.8
2024042402,45.3
2024042403,49.8
2024042404,46.7
2024042405,46.2
2024042406,57.8
2024042407,56.3
2024042408,36.9
2024042409,52.6
2024042410,30.1
2024042411,33.0
2024042412,23.2
2024042413,32.7
2024042414,24.6
2024042415,28.8
2024042416,39.2
2024042417,41.1
2024042418,37.6
2024042419,39.9
2024042420,26.3
2024042421,44.0
2024042422,56.7
2024042423,59.3
2024042300,57.4
2024042301,51.3
2024042302,49.6
2024042303,47.7
2024042304,48.4
2024042305,55.4
2024042306,58.3
2024042307,54.5
2024042308,46.5
2024042309,47.3
2024042310,40.0
2024042311,37.7
2024042312,29.7
2024042313,32.2
2024042314,34.1
2024042315,26.0
2024042316,26.0
2024042317,23.3
2024042318,30.0
2024042319,38.0
2024042320,48.9
2024042321,55.6
2024042322,56.5
2024042323,52.2
2024042200,52.9
2024042201,50.5
2024042202,52.1
2024042203,47.9
2024042204,54.2
2024042205,54.8
2024042206,52.5
2024042207,47.5
2024042208,52.0
2024042209,53.7
2024042210,44.0
2024042211,42.8
2024042212,38.0
2024042213,38.1
2024042214,36.3
2024042215,42.5
2024042216,56.4
2024042217,68.0
2024042218,28.6
2024042219,37.4
2024042220,47.7
2024042221,52.1
2024042222,45.2
2024042223,57.5
2024042100,58.6
2024042101,61.3
2024042102,55.3
2024042103,49.2
2024042104,56.3
2024042105,57.1
2024042106,57.3
2024042107,62.7
2024042108,54.4
2024042109,60.3
2024042110,57.7
2024042111,46.6
2024042112,43.9
2024042113,44.2
2024042114,47.4
2024042115,47.6
2024042116,48.2
2024042117,52.4
2024042118,43.0
2024042119,55.3
2024042120,59.3
2024042121,58.0
2024042122,61.1
2024042123,61.4
2024042000,48.1
2024042001,52.9
2024042002,59.4
2024042003,48.9
2024042004,54.6
2024042005,54.7
2024042006,52.8
2024042007,63.1
2024042008,51.1
2024042009,54.3
2024042010,52.5
2024042011,40.1
2024042012,45.2
2024042013,54.6
2024042014,52.3
2024042015,50.1
2024042016,49.6
2024042017,53.8
2024042018,46.0
2024042019,49.6
2024042020,55.9
2024042021,59.7
2024042022,62.1
2024042023,64.4
2024041900,43.9
2024041901,48.1
2024041902,45.4
2024041903,38.5
2024041904,54.8
2024041905,53.4
2024041906,37.0
2024041907,41.9
2024041908,37.4
2024041909,29.9
2024041910,40.4
2024041911,32.2
2024041912,35.0
2024041913,32.6
2024041914,31.4
2024041915,39.8
2024041916,36.8
2024041917,36.2
2024041918,35.2
2024041919,35.1
2024041920,51.7
2024041921,45.0
2024041922,56.6
2024041923,58.2
